Vorticity
nan nan nan nan nan nan nan nan nan nan nan nan nan nan nan nan nan nan nan nan nan nan nan nan nan nan nan nan nan nan nan nan nan nan nan nan nan nan nan nan nan nan nan nan nan
nan 10 12 11 10 10 11 11 12 10 7 5 5 6 7 11 21 16 8 7 5 3 4 10 7 4 5 7 6 8 8 9 6 6 9 8 6 6 6 6 9 7 6 16 nan
nan 9 10 12 11 11 11 10 9 9 9 7 5 5 8 14 16 22 12 5 6 7 7 9 7 4 7 7 9 8 7 9 8 7 9 6 7 8 4 7 10 5 6 8 nan
nan 8 9 11 10 10 10 10 9 9 8 6 7 8 13 14 8 5 20 23 7 5 6 9 6 4 5 8 9 7 9 6 9 9 6 8 6 6 5 6 6 2 4 8 nan
nan 9 8 9 9 9 9 9 8 9 9 8 7 10 16 8 8 -0 6 28 19 8 4 6 6 7 7 2 6 7 9 7 5 8 7 8 5 8 5 6 3 5 5 4 nan
nan 10 10 9 9 11 9 8 7 8 8 11 8 11 10 6 12 4 9 20 17 6 4 6 7 4 12 9 7 9 7 5 5 7 8 9 6 6 4 7 7 6 5 5 nan
nan 10 10 10 9 8 8 7 7 7 9 10 9 11 11 9 1 3 14 23 15 6 5 4 9 7 6 9 10 9 6 8 9 9 7 8 6 8 8 6 5 5 8 8 nan
nan 9 12 11 8 7 7 7 7 7 9 10 12 8 12 13 5 6 9 17 16 7 6 6 5 7 7 7 10 7 7 9 10 9 9 5 7 9 12 10 7 8 8 9 nan
nan 13 11 11 13 9 7 7 11 16 14 13 12 9 8 9 11 13 12 9 10 8 9 8 5 5 9 8 6 9 9 5 9 10 10 5 7 6 4 7 7 8 9 9 nan
nan 18 14 10 14 12 10 13 17 18 16 10 9 8 12 8 9 10 10 13 13 11 5 2 4 5 7 11 8 7 8 10 9 7 7 8 6 2 4 10 7 5 7 8 nan
nan 21 21 13 8 14 14 15 11 10 12 8 3 5 6 7 11 9 11 14 9 8 9 7 8 13 4 5 12 9 8 7 7 8 9 9 5 5 9 8 11 9 8 7 nan
nan 28 27 10 9 14 9 9 8 5 8 8 8 12 5 7 10 7 11 14 14 8 6 11 9 14 9 6 9 7 8 6 7 8 8 6 11 14 14 11 11 13 13 14 nan
nan 33 29 8 7 8 8 8 10 8 8 9 12 13 14 8 9 10 7 11 14 13 9 2 9 13 5 4 5 7 8 9 8 8 7 8 12 12 15 12 9 12 16 16 nan
nan 23 22 11 8 7 6 9 9 10 9 6 11 12 9 10 9 8 9 11 11 9 2 6 14 15 8 6 3 6 9 9 8 10 6 9 13 8 8 9 7 6 10 8 nan
nan 13 10 13 10 6 9 9 9 10 10 10 7 11 11 12 4 6 12 12 14 12 8 11 12 11 10 7 6 9 10 8 8 8 9 10 12 9 9 8 4 6 5 4 nan
nan 14 12 9 9 6 9 10 10 10 7 12 15 13 8 7 9 8 7 9 7 4 13 11 7 8 11 8 14 8 2 7 9 8 8 11 7 7 9 5 6 7 5 4 nan
nan 13 10 9 7 6 8 9 12 9 9 9 14 10 10 7 10 10 8 10 9 8 4 6 10 12 7 3 10 10 6 5 7 11 8 9 9 9 7 8 8 7 4 6 nan
nan 9 10 12 7 9 8 7 6 8 14 11 5 9 7 7 12 11 9 6 8 11 11 10 8 6 9 10 9 8 9 10 11 7 8 9 7 9 9 9 11 10 7 7 nan
nan 11 9 9 10 9 9 13 8 5 9 9 7 4 5 10 11 8 9 9 10 8 8 5 8 8 10 11 12 10 8 10 8 8 10 7 7 8 11 11 9 4 3 8 nan
nan 11 9 10 11 10 12 9 10 7 6 10 9 8 10 8 8 10 9 7 9 9 12 9 7 9 9 4 10 16 9 6 8 12 8 8 11 12 10 7 6 5 5 9 nan
nan 12 9 11 10 8 8 6 9 10 9 12 10 9 10 9 9 11 7 6 9 10 12 10 8 12 11 10 7 5 6 9 12 9 11 9 11 13 8 4 3 4 9 11 nan
nan 8 11 8 9 10 7 7 9 10 9 11 11 9 10 9 9 12 10 8 11 8 6 9 10 10 8 9 9 11 10 8 9 8 6 11 10 12 9 7 6 4 10 10 nan
nan 9 8 11 7 9 8 11 9 9 10 11 10 10 11 10 9 10 9 12 11 9 12 8 5 8 8 10 14 12 9 7 8 14 11 5 9 6 6 8 9 9 10 11 nan
nan 9 10 10 11 10 9 9 10 11 9 10 10 9 10 7 12 13 6 12 12 10 10 10 12 12 9 8 9 10 11 8 6 8 11 4 7 5 4 5 7 13 14 9 nan
nan 12 10 5 8 10 10 8 9 10 13 9 10 12 9 7 9 9 10 8 12 9 6 9 9 9 10 12 8 8 10 10 3 6 3 7 4 3 5 9 11 11 7 9 nan
nan 8 10 11 9 10 11 9 8 9 10 11 12 9 10 11 10 7 7 10 8 9 9 9 11 8 9 14 9 9 9 10 9 5 5 4 7 14 10 12 9 10 9 8 nan
nan nan nan nan nan nan nan nan nan nan nan nan nan nan nan nan nan nan nan nan nan nan nan nan nan nan nan nan nan nan nan nan nan nan nan nan nan nan nan nan nan nan nan nan nan
CAPE
66 75 86 90 92 108 131 99 93 89 2 2 0 1 1 3 21 31 10 1 0 60 104 0 11 19 0 0 0 0 0 0 0 0 0 0 0 0 0 0 0 0 0 0 52
65 69 97 116 117 96 104 112 93 92 60 28 2 0 2 9 3 6 0 0 2 8 7 0 21 0 0 0 0 0 0 0 0 0 0 0 0 0 0 0 0 0 0 6 203
74 75 97 109 131 117 109 104 86 105 100 59 33 8 15 21 27 4 44 37 39 80 5 10 10 0 0 0 0 0 0 0 0 0 0 0 0 0 0 0 0 0 0 0 122
109 90 110 146 160 144 109 100 74 57 59 90 49 12 19 28 16 0 66 251 92 9 105 0 0 0 0 0 0 0 0 0 0 0 0 0 0 0 0 0 0 0 0 0 0
127 151 157 134 158 156 113 117 96 58 120 129 38 65 26 30 11 0 0 35 34 55 128 2 6 2 3 0 0 0 0 0 0 0 0 0 0 0 0 0 0 0 0 0 0
145 181 199 232 182 178 146 125 128 140 186 168 84 90 27 31 9 0 0 11 7 150 142 10 0 0 0 0 0 0 0 0 0 0 0 0 0 0 0 0 0 0 0 0 0
154 159 212 227 194 174 196 180 202 220 255 227 110 50 16 0 0 0 0 169 9 218 128 5 1 0 0 0 0 0 0 0 0 0 0 0 0 0 0 0 0 0 0 0 0
93 106 175 175 192 144 191 245 230 211 258 152 149 58 10 10 2 7 0 183 69 299 168 12 0 0 0 0 0 0 0 0 0 0 0 0 0 0 0 0 0 0 0 0 0
198 193 97 129 82 89 107 234 241 242 237 176 56 47 8 59 10 0 0 117 221 150 43 107 37 31 0 0 0 0 0 0 0 0 0 0 0 0 0 0 0 0 0 0 0
157 188 100 86 37 21 81 143 111 139 154 112 63 34 2 12 0 0 0 39 138 118 130 116 36 17 0 0 0 0 0 0 0 0 0 0 0 0 0 0 0 0 0 0 0
128 136 115 12 53 124 0 0 0 0 43 0 2 1 23 10 0 5 38 151 112 62 59 33 5 9 14 0 0 0 0 0 0 0 0 0 0 0 0 0 0 0 0 0 0
31 78 64 3 69 63 0 0 0 0 0 1 4 12 17 16 3 9 0 89 20 15 24 30 12 0 1 0 0 0 0 0 0 0 0 0 0 0 0 0 0 0 0 0 0
68 66 22 1 34 0 0 0 0 2 2 2 0 2 35 31 26 14 63 29 0 7 11 2 23 0 0 1 3 0 0 0 0 0 0 0 0 0 0 0 0 0 0 0 0
16 57 14 2 8 2 0 0 0 0 0 16 3 15 10 19 21 4 23 22 35 3 26 11 4 13 2 1 0 0 0 0 0 0 0 0 0 0 0 0 0 0 0 0 0
13 16 12 10 0 0 0 0 0 0 0 4 6 8 5 0 16 0 0 4 0 23 16 5 14 26 31 16 0 0 0 0 0 0 0 0 0 0 0 0 0 0 0 0 0
0 0 0 0 0 0 0 0 0 0 0 2 7 19 11 11 5 7 0 0 6 1 0 0 0 0 3 0 0 0 0 0 0 0 0 0 0 0 0 0 0 0 0 0 0
0 0 0 0 0 0 0 0 0 0 2 9 5 12 1 7 1 2 9 0 6 1 5 4 0 0 0 0 0 0 0 0 0 0 0 0 0 0 0 0 0 0 0 0 0
0 0 0 0 0 0 0 0 0 19 28 3 0 0 8 3 0 0 0 0 0 0 1 0 2 0 0 0 0 0 0 0 0 0 0 0 0 0 0 0 0 0 0 0 0
0 0 0 0 0 0 0 0 0 0 11 0 0 0 0 0 0 0 0 0 0 0 0 0 0 0 0 0 0 0 0 0 0 0 0 0 0 0 0 0 0 0 0 0 0
0 0 0 0 0 0 0 7 0 0 0 0 0 0 0 0 0 0 0 0 0 0 0 0 0 0 0 0 0 0 0 0 0 0 0 0 0 0 0 0 0 0 0 0 0
0 0 0 0 0 0 0 0 0 0 0 0 0 0 0 0 0 0 0 0 0 0 0 0 0 0 0 0 0 0 0 0 0 0 0 0 0 0 0 0 0 0 0 0 0
0 0 0 0 0 0 0 1 0 0 0 0 0 0 0 0 0 0 0 0 0 0 0 0 0 0 0 0 0 0 0 0 0 0 0 0 0 0 0 0 0 0 0 0 0
0 0 0 0 0 0 0 0 0 0 0 0 0 0 0 0 0 0 0 0 0 0 0 0 0 0 0 0 0 0 0 0 0 0 0 0 0 0 0 0 0 0 0 0 0
0 0 0 0 0 0 0 0 0 0 0 0 0 0 0 0 0 0 0 0 0 0 0 0 0 0 0 0 0 0 0 0 0 0 0 0 0 0 0 0 0 0 0 0 0
0 0 0 0 0 0 0 0 0 0 0 0 0 0 0 0 0 0 0 0 0 0 0 0 0 0 0 0 0 0 0 0 0 0 0 0 0 0 0 0 0 0 0 0 0
0 0 0 0 0 0 0 0 0 0 0 0 0 0 0 0 0 0 0 0 0 0 0 0 0 0 0 0 0 0 0 0 0 0 0 0 0 0 0 0 0 0 0 0 0
0 0 4 0 0 0 0 0 0 0 0 0 0 0 0 0 0 0 0 0 0 0 0 0 0 0 0 0 0 0 0 0 0 0 0 0 0 0 0 0 0 0 0 0 0